Powrót do katalogu

ARIANE 42P+ DEB

AktywnyHEO
NORAD 22670·DEBRIS·🇫🇷 France

Wystrzelony Oct 28, 1992 z Guiana Space Centre

Loading…

Następne Przeloty (najbliższe 24 godziny)

TLE

ŚwieżeSource: Space-Track

Epoka: Sep 14, 2026, 15:39 UTC

1 22670U 92072C   26257.65243469  .00025239  00000-0  20217-2 0  9993
2 22670   6.7195 231.5374 5993639 292.0795  16.4068  4.09303876764901

Śledź ARIANE 42P+ DEB w czasie rzeczywistym z AllMySat

Download on the App Store